This is the latest recevied weather packets stored in our database for station/object IN3MWE-10. If no packets are shown the sender has not sent any weather packets the latest 1 day(s).
| Time | Temp. | Humidity | Pressure | Rain* | Wind** | Luminosity | Snow |
|---|---|---|---|---|---|---|---|
| 1777765824 | 15.56° C | 42% | 984.8 hPa | - | - | - | - |
| 1777764924 | 15.56° C | 43% | 984.8 hPa | - | - | - | - |
| 1777764024 | 15.56° C | 42% | 984.8 hPa | - | - | - | - |
| 1777763124 | 16.11° C | 41% | 984.9 hPa | - | - | - | - |
| 1777762224 | 16.11° C | 42% | 984.7 hPa | - | - | - | - |
| 1777761324 | 16.11° C | 41% | 984.7 hPa | - | - | - | - |
| 1777760423 | 16.11° C | 41% | 984.8 hPa | - | - | - | - |
| 1777759523 | 16.11° C | 41% | 984.7 hPa | - | - | - | - |
| 1777758623 | 16.67° C | 41% | 984.7 hPa | - | - | - | - |
| 1777757723 | 16.67° C | 40% | 984.7 hPa | - | - | - | - |
| 1777756823 | 16.67° C | 40% | 984.6 hPa | - | - | - | - |
| 1777755923 | 16.67° C | 41% | 984.5 hPa | - | - | - | - |
| 1777755023 | 17.22° C | 41% | 984.4 hPa | - | - | - | - |
| 1777754122 | 17.22° C | 40% | 984.4 hPa | - | - | - | - |
| 1777753222 | 17.22° C | 39% | 984.4 hPa | - | - | - | - |
| 1777752322 | 17.78° C | 40% | 984.3 hPa | - | - | - | - |
| 1777751422 | 17.78° C | 39% | 984.2 hPa | - | - | - | - |
| 1777750522 | 17.78° C | 39% | 983.9 hPa | - | - | - | - |
| 1777749622 | 18.33° C | 39% | 983.7 hPa | - | - | - | - |
| 1777748722 | 18.33° C | 39% | 983.4 hPa | - | - | - | - |
| 1777747821 | 18.89° C | 38% | 983.2 hPa | - | - | - | - |
| 1777746921 | 19.44° C | 33% | 982.9 hPa | - | - | - | - |
| 1777746021 | 20.56° C | 32% | 982.6 hPa | - | - | - | - |
| 1777745121 | 21.11° C | 29% | 982.4 hPa | - | - | - | - |
| 1777744221 | 21.11° C | 29% | 982.1 hPa | - | - | - | - |
* Rain since midnight (hover to see other rain measurements)
** Current wind speed in m/s (hover to see current wind gust speed)